sat.trackr.live / text

‹ back to catalog

STARLINK-32091

NORAD 59684 · 2024-086C

PAYLOAD ACTIVE UNKNOWN

§ Identity

Operator
Country
US
Launch date
2024-05-08
Launch site
AFETR
Launch vehicle
Mass (kg)
RCS (m²)

Purposes: comms

External: N2YO · Heavens-Above · Gunter

§ Orbital elements

Epoch: 2026-05-24T13:39:42.680736Z

Period
94.27 min
Inclination
43.0009°
Eccentricity
0.0001570
Mean motion
15.27580131 rev/d
Perigee alt
482.0 km
Apogee alt
484.1 km
Semi-major
6,861.2 km
B*
-8.5377e-7
RAAN
343.8729°
Arg perigee
274.6297°
Mean anomaly
85.4375°
Rev number
11,581

§ Raw data

STARLINK-320911 59684U 24086C   26144.56924399 -.00000286  00000+0 -85377-6 0  99992 59684  43.0009 343.8729 0001570 274.6297  85.4375 15.27580131115817

JSON: /api/v1/satellites/59684 · /tle

For live sub-satellite position, see the globe view (requires WebGL).

§ Visibility from observer

Set your observer location to see the next 7 days of passes ≥ 10°. The values pass through the URL so the page stays shareable.

No JS? Fill the form by hand. The geolocation button needs JavaScript.